Weather in Chaumont

France     48°06′34″N   5°08′11″E
temp.,
°C
wind,
m/s
gust,
m/s
humid.,
%
clouds,
%
prec.,
mm/h
press.,
hPa
HPBL,
m
27 october, wed
wed2723:00+7wsw118812 0.0 102710
02:00+6sw1188100 0.0 102710
05:00+6nnw0088100 0.0 102610
08:00+6ese11885 0.0 102610
11:00+11ese22725 0.0 1026217
14:00+14ese22575 0.0 1024577
17:00+14e11645 0.0 102360
20:00+9ese22785 0.0 102311
28 october, thu
thu2823:00+7se22835 0.0 102316
02:00+6se33890 0.0 102230
05:00+6se35930 0.0 102179
08:00+5sse49975 0.0 1021155
11:00+10s46785 0.0 1020204
14:00+15sse44601 0.0 1018426
17:00+14sse486877 0.0 1016323
20:00+9sse4883100 0.0 1016123
29 october, fri
fri2923:00+9sse41285100 0.0 1016224
02:00+9sse51580100 0.0 1015305
05:00+9s61779100 0.0 1013346
08:00+9sse71876100 0.0 1012404
11:00+11s81867100 0.0 1012532
14:00+15s81559100 0.0 1010910
17:00+14s5106729 0.0 1009544
20:00+12s51474100 0.1 1010454
30 october, sat
sat3023:00+10ssw41194100 1.4 1011576
02:00+10ssw5129435 2.0 1012470
05:00+9s399643 0.1 1012219
08:00+9sse349297 0.1 101294
11:00+10sse5108895 0.0 1012295
14:00+14s8167297 0.0 10101107
17:00+10se61294100 1.2 1009516
20:00+10se81493100 2.9 1009505
31 october, sun
sun3123:00+9se61695100 2.8 1008767
02:00+11sse91992100 5.1 1005788
04:00+12s101995100 2.8 1003707
07:00+13ssw9189496 4.1 1003885
10:00+14sw9158755 1.6 1005941
13:00+14wsw813795 2.0 10071206
16:00+13sw7137992 0.2 10081058
19:00+11ssw6138492 0.3 1007557